Location: Unspecified
(45.6635°N, 122.4424°W)
Time: 08:41:41
(UTC+00:00)

ISS - Visible Passes

Search period start: 20 January 2018 00:00
Search period end: 30 January 2018 00:00
Orbit: 402 x 407 km, 51.6° (Epoch: 20 January)

Date Brightness Start Highest point End Pass type
(mag) Time Alt. Az. Time Alt. Az. Time Alt. Az.
25 Jan -1.4 03:18:22 10° SSW 03:19:21 17° SSW 03:19:21 17° SSW visible
26 Jan -2.2 02:26:44 10° S 02:29:09 19° SE 02:29:29 19° SE visible
26 Jan -0.3 04:02:04 10° WSW 04:02:09 11° WSW 04:02:09 11° WSW visible
27 Jan -1.4 01:36:06 10° SSE 01:37:00 11° SE 01:37:55 10° ESE visible
27 Jan -3.1 03:09:41 10° SW 03:12:12 48° SW 03:12:12 48° SW visible
28 Jan -3.2 02:17:33 10° SW 02:20:37 40° SE 02:22:10 23° E visible
28 Jan -0.8 03:53:58 10° W 03:54:49 16° W 03:54:49 16° W visible
29 Jan -3.6 03:01:22 10° WSW 03:04:36 60° NNW 03:04:42 60° NNW visible
